"2010-03-03 00:00:00",1728279,3.83,86.2,7.176,1.147,8.73,103.2769,7.665,8.84,27.02,0,110.2,13.35,8.44,48.2
"2010-03-03 00:00:30",1728280,6.192,95.1,7.298,1.386,11.05,103.2793,7.671,8.94,27.12,0,110.2,13.35,8.45,57.1
"2010-03-03 00:01:00",1728281,6.74,101,5.087,0.973,11.94,103.2672,7.64,8.95,27.11,0,110.1,13.35,8.42,63.0
"2010-03-03 00:01:30",1728282,5.417,98.8,6.791,1.391,9.55,103.2518,7.601,8.74,26.93,0,110.1,13.35,8.38,60.8
"2010-03-03 00:02:00",1728283,4.539,98.7,4.931,1.164,8.71,103.2509,7.599,8.67,26.84,0,110.1,13.35,8.38,60.7
"2010-03-03 00:02:30",1728284,3.895,101.6,7.848,0.846,8.01,103.2509,7.599,8.76,26.96,0,110.1,13.35,8.38,63.6
"2010-03-03 00:03:00",1728285,3.66,105.4,9.05,1.285,8.12,103.2489,7.594,8.62,26.86,0,110.1,13.36,8.37,67.4
"2010-03-03 00:03:30",1728286,4.346,98.6,6.739,1.443,9.46,103.23,7.545,8.77,27.05,0,110.1,13.36,8.32,60.6
"2010-03-03 00:04:00",1728287,5.023,93.3,5.484,1.317,9.4,103.2173,7.513,8.74,27.07,0,110.1,13.36,8.29,55.3
"2010-03-03 00:04:30",1728288,5.856,96.3,7.777,1.213,10.84,103.2171,7.512,8.77,27.14,0,110.1,13.36,8.29,58.3
"2010-03-03 00:05:00",1728289,5.683,98.8,7.183,1.288,10.5,103.2171,7.512,8.75,27.35,0,110.1,13.36,8.29,60.8
"2010-03-03 00:05:30",1728290,4.263,96.2,4.983,0.78,7.592,103.2131,7.502,8.58,27.24,0,110.1,13.36,8.28,58.2
"2010-03-03 00:06:00",1728291,4.918,97.9,7.061,1.179,8.43,103.1948,7.455,8.59,27.37,0,110.1,13.36,8.23,59.9
"2010-03-03 00:06:30",1728292,5.375,94.8,7.393,1.393,10.02,103.1832,7.426,8.74,27.83,0,110.1,13.36,8.20,56.8
"2010-03-03 00:07:00",1728293,4.797,87.7,6.771,1.286,8.86,103.1832,7.426,8.51,27.76,0,110.1,13.36,8.20,49.7
"2010-03-03 00:07:30",1728294,5.826,89.2,4.76,1.242,10.96,103.1832,7.426,8.81,28.2,0,110.1,13.36,8.20,51.2
"2010-03-03 00:08:00",1728295,5.872,90.4,7.663,1.289,10.56,103.1787,7.414,8.68,28.04,0,110.1,13.36,8.19,52.4
"2010-03-03 00:08:30",1728296,4.833,82.5,6.13,1.104,8.51,103.1623,7.372,8.6,28.04,0,110.1,13.36,8.15,44.5
"2010-03-03 00:09:00",1728297,4.007,77,2.498,0.119,7.061,103.1493,7.339,8.45,28.06,0,110.1,13.4,8.12,39.0
"2010-03-03 00:09:30",1728298,5.447,86.8,6.558,1.174,9.31,103.1493,7.339,8.56,28.33,0,110.1,13.36,8.12,48.8
"2010-03-03 00:10:00",1728299,5.082,92.3,6.936,1.16,9.38,103.1493,7.339,8.65,28.51,0,110.1,13.36,8.12,54.3
"2010-03-03 00:10:30",1728300,5.589,94.3,8.24,1.269,9.96,103.1476,7.335,8.5,28.45,0,110.1,13.36,8.11,56.3
"2010-03-03 00:11:00",1728301,6.214,101.8,5.483,0.979,11.45,103.1296,7.289,8.67,28.63,0,110.1,13.36,8.07,63.8
"2010-03-03 00:11:30",1728302,5.549,104.4,5.623,1.322,10.8,103.1186,7.261,8.58,28.64,0,110.1,13.36,8.04,66.4
"2010-03-03 00:12:00",1728303,3.861,93,4.228,0.479,7.22,103.1178,7.259,8.37,28.28,0,110.1,13.36,8.04,55.0
"2010-03-03 00:12:30",1728304,4.8,96.3,7.434,1.359,8.61,103.1248,7.276,8.38,28,0,110.1,13.36,8.05,58.3
"2010-03-03 00:13:00",1728305,4.451,94.9,3.704,1.032,8.86,103.126,7.279,8.45,28.06,0,110.1,13.36,8.06,56.9
"2010-03-03 00:13:30",1728306,5.036,90.6,7.481,1.391,9.7,103.1321,7.295,8.42,28.06,0,110.1,13.37,8.07,52.6
"2010-03-03 00:14:00",1728307,5.14,95.8,6.682,1.286,10.36,103.1211,7.267,8.59,28.29,0,110.1,13.37,8.04,57.8
"2010-03-03 00:14:30",1728308,5.556,105.4,5.866,1.214,10.65,103.1081,7.234,8.51,28.27,0,110.1,13.37,8.01,67.4
"2010-03-03 00:15:00",1728309,5.04,101.1,7.429,1.278,9.24,103.1092,7.237,8.44,28.15,0,110.1,13.37,8.01,63.1
"2010-03-03 00:15:30",1728310,4.029,95.3,1.709,0.146,7.214,103.1127,7.246,8.28,28.07,0,110.1,13.4,8.02,57.3
"2010-03-03 00:16:00",1728311,5.007,97,5.888,1.277,9.05,103.1157,7.253,8.31,28.14,0,110.1,13.37,8.03,59.0
"2010-03-03 00:16:30",1728312,5.03,96.8,8.48,1.184,9.44,103.1134,7.247,8.44,28.34,0,110.1,13.38,8.02,58.8
"2010-03-03 00:17:00",1728313,5.408,98.8,6.487,1.252,10.08,103.1041,7.224,8.45,28.37,0,110.1,13.38,8.00,60.8
"2010-03-03 00:17:30",1728314,5.76,101.8,5.738,1.256,10.8,103.0866,7.179,8.48,28.43,0,110.1,13.38,7.96,63.8
"2010-03-03 00:18:00",1728315,5.342,100.9,7.223,1.156,9.96,103.0826,7.169,8.33,28.3,0,110.1,13.38,7.95,62.9
"2010-03-03 00:18:30",1728316,4.959,92.2,7.487,1.126,8.66,103.0826,7.169,8.35,28.42,0,110.1,13.38,7.95,54.2
"2010-03-03 00:19:00",1728317,4.016,87.3,3.487,0.833,7.402,103.0826,7.169,8.19,28.34,0,110.1,13.38,7.95,49.3
"2010-03-03 00:19:30",1728318,4.744,85.3,7.571,1.128,8.3,103.0826,7.169,8.2,28.46,0,110.1,13.38,7.95,47.3
"2010-03-03 00:20:00",1728319,5.614,95,7.7,1.041,11.55,103.0796,7.161,8.46,28.87,0,110.1,13.38,7.94,57.0
"2010-03-03 00:20:30",1728320,5.669,96.4,6.017,1.084,10.95,103.0742,7.147,8.41,28.84,0,110.1,13.38,7.92,58.4
"2010-03-03 00:21:00",1728321,4.713,89.6,6.017,1.078,8.54,103.057,7.103,8.29,29.03,0,110.1,13.38,7.88,51.6
"2010-03-03 00:21:30",1728322,5.244,91.3,7.272,1.169,8.38,103.0491,7.083,8.21,29.46,0,110.1,13.38,7.86,53.3
"2010-03-03 00:22:00",1728323,5.353,90.2,6.909,1.304,9.02,103.0488,7.082,8.28,29.82,0,110.1,13.38,7.86,52.2
"2010-03-03 00:22:30",1728324,4.126,84,2.001,0.181,7.221,103.0488,7.082,8.13,29.85,0,110.1,13.42,7.86,46.0
"2010-03-03 00:23:00",1728325,5.541,93.8,6.392,1.193,9.69,103.0488,7.082,8.22,29.97,0,110.1,13.38,7.86,55.8
"2010-03-03 00:23:30",1728326,6.398,98.8,4.046,0.93,11.81,103.0476,7.079,8.44,30.01,0,110,13.38,7.86,60.8
"2010-03-03 00:24:00",1728327,6.009,96.1,5.627,1.213,10.8,103.0395,7.058,8.37,29.76,0,110,13.38,7.84,58.1
"2010-03-03 00:24:30",1728328,4.336,87.3,4.402,0.763,7.442,103.0287,7.031,8.19,29.42,0,110,13.38,7.81,49.3
"2010-03-03 00:25:00",1728329,5.035,92.9,6.206,1.28,8.4,103.0197,7.008,8.14,29.25,0,110.1,13.38,7.78,54.9
"2010-03-03 00:25:30",1728330,4.877,94.1,7.097,1.211,8.97,103.0149,6.996,8.21,29.31,0,110,13.38,7.77,56.1
"2010-03-03 00:26:00",1728331,3.973,87.4,2.31,0.444,7.527,103.0149,6.996,8.07,29.04,0,110,13.38,7.77,49.4
"2010-03-03 00:26:30",1728332,4.914,93.3,5.922,1.186,9.66,103.0149,6.996,8.18,29.06,0,110,13.38,7.77,55.3
"2010-03-03 00:27:00",1728333,5.81,101.6,4.64,0.922,11.72,103.0132,6.991,8.35,29.16,0,110.1,13.38,7.77,63.6
"2010-03-03 00:27:30",1728334,5.185,97.2,7.492,1.286,10.36,103.0028,6.965,8.27,29.12,0,110,13.38,7.74,59.2
"2010-03-03 00:28:00",1728335,4.261,94.1,6.102,0.948,7.778,102.9888,6.929,8.1,28.99,0,110,13.38,7.71,56.1
"2010-03-03 00:28:30",1728336,4.315,92.2,4.994,1.031,7.446,102.9874,6.925,8.1,29.09,0,110,13.38,7.70,54.2
"2010-03-03 00:29:00",1728337,4.613,98.8,6.471,1.37,9.32,102.9915,6.936,8.09,29.16,0,110,13.38,7.71,60.8
"2010-03-03 00:29:30",1728338,3.677,94.7,3.325,0.671,7.778,102.9929,6.94,8.01,29.12,0,110,13.38,7.72,56.7
"2010-03-03 00:30:00",1728339,4.95,102.2,6.297,1.273,10.46,102.9976,6.951,8.21,29.22,0,110,13.39,7.73,64.2
"2010-03-03 00:30:30",1728340,5.65,105.7,4.818,0.99,11.89,103.0014,6.961,8.26,29.28,0,110,13.39,7.74,67.7
"2010-03-03 00:31:00",1728341,5.368,105.2,5.726,1.194,10.4,102.9984,6.954,8.13,29.16,0,110,13.39,7.73,67.2
"2010-03-03 00:31:30",1728342,3.477,95,1.635,0.067,6.797,102.9872,6.925,8.03,29.19,0,110,13.42,7.70,57.0
"2010-03-03 00:32:00",1728343,4.443,99.6,6.164,1.301,8.97,102.9803,6.907,8.04,29.42,0,110,13.39,7.68,61.6
"2010-03-03 00:32:30",1728344,4.44,99.2,6.467,1.296,9.32,102.9809,6.909,8.1,29.41,0,110,13.4,7.68,61.2
"2010-03-03 00:33:00",1728345,3.88,95.4,4.405,0.89,8.13,102.982,6.912,7.952,29.37,0,110,13.4,7.69,57.4
"2010-03-03 00:33:30",1728346,5.389,102.4,5.673,1.15,11.57,102.982,6.912,8.21,29.78,0,109.9,13.4,7.69,64.4
"2010-03-03 00:34:00",1728347,5.608,104.7,4.875,0.931,11.36,102.9818,6.911,8.17,29.83,0,110,13.4,7.69,66.7
"2010-03-03 00:34:30",1728348,4.481,99.3,7.538,1.303,9.2,102.9767,6.898,8,29.73,0,110,13.4,7.67,61.3
"2010-03-03 00:35:00",1728349,3.824,91.5,5.218,1.045,7.447,102.958,6.85,7.919,29.71,0,110,13.4,7.63,53.5
"2010-03-03 00:35:30",1728350,4.28,92.5,5.155,1.074,8.27,102.9481,6.825,8.04,30.06,0,110,13.4,7.60,54.5
"2010-03-03 00:36:00",1728351,4.186,88.6,4.511,0.89,7.802,102.9481,6.825,7.913,30.2,0,110,13.4,7.60,50.6
"2010-03-03 00:36:30",1728352,4.713,91.4,6.485,1.258,9.3,102.9481,6.825,8,30.61,0,110,13.4,7.60,53.4
"2010-03-03 00:37:00",1728353,5.55,95.4,6.169,1.252,10.57,102.9481,6.825,8.11,31.06,0,110,13.4,7.60,57.4
"2010-03-03 00:37:30",1728354,5.823,97.1,5.587,1.189,10.82,102.9479,6.824,8.07,31.24,0,110,13.4,7.60,59.1
"2010-03-03 00:38:00",1728355,4.739,90.8,6.019,1.182,7.78,102.9337,6.788,7.882,31.26,0,110,13.4,7.56,52.8
"2010-03-03 00:38:30",1728356,4.052,88.6,1.021,0.09,6.636,102.9196,6.752,7.911,31.32,0,110,13.44,7.53,50.6
"2010-03-03 00:39:00",1728357,5.076,93.1,7.743,1.229,8.91,102.9146,6.739,7.91,31.26,0,110,13.4,7.51,55.1
"2010-03-03 00:39:30",1728358,5.07,94.6,6.917,1.262,9.31,102.9143,6.739,7.976,31.35,0,110,13.41,7.51,56.6
"2010-03-03 00:40:00",1728359,5.608,100.3,6.388,1.259,10.99,102.9143,6.739,8.02,31.33,0,110,13.41,7.51,62.3
"2010-03-03 00:40:30",1728360,5.859,105.6,4.663,0.876,11.53,102.9143,6.739,8.12,31.31,0,110,13.41,7.51,67.6
"2010-03-03 00:41:00",1728361,5.141,101.1,5.962,1.256,9.63,102.9066,6.719,7.88,31.07,0,110,13.41,7.49,63.1
"2010-03-03 00:41:30",1728362,3.695,95.9,2.456,0.055,7.121,102.8846,6.663,7.88,31.11,0,110,13.44,7.44,57.9
"2010-03-03 00:42:00",1728363,4.693,99.8,6.762,1.236,8.63,102.8807,6.653,7.905,31.15,0,110,13.41,7.43,61.8
"2010-03-03 00:42:30",1728364,4.165,97.3,4.455,0.918,8.23,102.8804,6.652,7.88,31.14,0,110,13.4,7.43,59.3
"2010-03-03 00:43:00",1728365,5.771,101.4,6.784,1.228,11.07,102.8804,6.652,7.903,31.25,0,110,13.4,7.43,63.4
"2010-03-03 00:43:30",1728366,6.395,102.8,5.911,1.041,11.36,102.8807,6.653,7.978,31.55,0,110,13.4,7.43,64.8
"2010-03-03 00:44:00",1728367,5.639,100.8,6.551,1.252,9.76,102.8784,6.647,7.916,31.56,0,110,13.4,7.42,62.8
"2010-03-03 00:44:30",1728368,5.529,99.8,6.896,1.247,8.96,102.8692,6.623,7.881,31.54,0,110,13.4,7.40,61.8
"2010-03-03 00:45:00",1728369,4.909,96,5.459,1.041,7.694,102.8619,6.605,7.698,31.36,0,110,13.4,7.38,58.0
"2010-03-03 00:45:30",1728370,4.898,95.1,5.475,0.96,7.925,102.8575,6.594,7.817,31.49,0,110,13.4,7.37,57.1
"2010-03-03 00:46:00",1728371,6.396,103.5,5.931,1.049,11.45,102.8619,6.605,7.856,31.53,0,110,13.4,7.38,65.5
"2010-03-03 00:46:30",1728372,5.667,101.1,6.988,1.246,10.53,102.8636,6.609,7.889,31.57,0,110,13.41,7.38,63.1
"2010-03-03 00:47:00",1728373,6.5,102.6,5.436,0.978,11,102.8662,6.616,7.875,31.59,0,110,13.41,7.39,64.6
"2010-03-03 00:47:30",1728374,4.859,94.3,5.844,0.91,7.925,102.8686,6.622,7.81,31.52,0,110,13.41,7.40,56.3
"2010-03-03 00:48:00",1728375,5.129,96.7,6.264,1.208,7.689,102.8602,6.6,7.622,31.37,0,110,13.41,7.38,58.7
"2010-03-03 00:48:30",1728376,4.881,100.9,7.064,1.256,8.94,102.8471,6.567,7.749,31.46,0,110,13.41,7.34,62.9
"2010-03-03 00:49:00",1728377,5.42,100.7,6.165,1.304,9.94,102.8457,6.563,7.714,31.38,0,110,13.41,7.34,62.7
"2010-03-03 00:49:30",1728378,5.481,100.6,6.405,1.269,10.82,102.846,6.564,7.907,31.58,0,110,13.42,7.34,62.6
"2010-03-03 00:50:00",1728379,5.807,102,6.671,1.098,10.72,102.8475,6.568,7.787,31.45,0,110,13.42,7.34,64.0
"2010-03-03 00:50:30",1728380,4.745,97.4,5.985,1.157,8.6,102.8475,6.568,7.758,31.52,0,110,13.42,7.34,59.4
"2010-03-03 00:51:00",1728381,5.122,100.2,7.136,1.256,8.97,102.8475,6.568,7.727,31.63,0,110,13.42,7.34,62.2
"2010-03-03 00:51:30",1728382,3.996,94.4,0.752,0.072,6.688,102.8475,6.568,7.569,31.62,0,110,13.45,7.34,56.4
"2010-03-03 00:52:00",1728383,5.65,103.4,6.423,1.236,10.39,102.8463,6.565,7.77,31.96,0,110,13.42,7.34,65.4
"2010-03-03 00:52:30",1728384,5.659,103.6,6.561,1.173,11.17,102.8325,6.53,7.766,32.17,0,110,13.42,7.30,65.6
"2010-03-03 00:53:00",1728385,5.501,103.3,6.47,1.216,10.61,102.8161,6.488,7.723,32.39,0,110,13.42,7.26,65.3
"2010-03-03 00:53:30",1728386,5.542,103.5,6.308,1.251,10.65,102.8136,6.481,7.756,32.74,0,110,13.42,7.26,65.5
"2010-03-03 00:54:00",1728387,4.568,98.3,4.323,1.133,7.623,102.8136,6.481,7.574,32.82,0,110,13.42,7.26,60.3
"2010-03-03 00:54:30",1728388,4.446,98.8,5.318,0.998,7.916,102.8136,6.481,7.629,33.01,0,110,13.42,7.26,60.8
"2010-03-03 00:55:00",1728389,4.516,99.7,6.111,1.083,8.16,102.8136,6.481,7.62,33.16,0,109.9,13.42,7.26,61.7
"2010-03-03 00:55:30",1728390,5.941,105.8,6.276,1.198,11.01,102.8136,6.481,7.757,33.4,0,109.9,13.42,7.26,67.8
"2010-03-03 00:56:00",1728391,5.715,104.8,6.386,1.196,11.14,102.8127,6.479,7.752,33.44,0,110,13.42,7.25,66.8
"2010-03-03 00:56:30",1728392,5.7,105.4,6.47,1.309,10.73,102.802,6.452,7.731,33.47,0,109.9,13.42,7.23,67.4
"2010-03-03 00:57:00",1728393,5.193,103.3,6.931,1.22,9.46,102.7862,6.411,7.624,33.34,0,109.9,13.42,7.19,65.3
"2010-03-03 00:57:30",1728394,4.306,98.8,2.652,0.245,7.209,102.7802,6.396,7.608,33.38,0,109.9,13.46,7.17,60.8
"2010-03-03 00:58:00",1728395,4.435,98.1,3.669,0.629,7.089,102.7797,6.395,7.463,33.36,0,109.9,13.43,7.17,60.1
"2010-03-03 00:58:30",1728396,6.155,107.7,5.826,1.138,10.66,102.7797,6.395,7.707,33.64,0,109.9,13.43,7.17,69.7
"2010-03-03 00:59:00",1728397,5.913,103.7,6.602,1.297,10.25,102.7805,6.397,7.666,33.65,0,109.9,13.42,7.17,65.7
"2010-03-03 00:59:30",1728398,6.086,107.3,5.17,1.184,11.03,102.7808,6.398,7.688,33.65,0,109.9,13.42,7.17,69.3
"2010-03-03 01:00:00",1728399,6.001,106.6,6.201,1.107,10.63,102.7837,6.405,7.695,33.53,0,109.9,13.42,7.18,68.6
"2010-03-03 01:00:30",1728400,5.504,104.6,6.314,1.253,9.19,102.7826,6.402,7.515,33.35,0,109.9,13.42,7.18,66.6
"2010-03-03 01:01:00",1728401,4.234,98,0.894,0.069,6.744,102.7772,6.388,7.419,33.29,0,109.9,13.45,7.16,60.0
"2010-03-03 01:01:30",1728402,5.122,104.8,6.333,1.24,9.02,102.7634,6.353,7.597,33.51,0,109.9,13.42,7.13,66.8
"2010-03-03 01:02:00",1728403,5.657,107.4,6.761,1.28,10.17,102.7548,6.331,7.616,33.54,0,109.9,13.43,7.11,69.4
"2010-03-03 01:02:30",1728404,6.007,108.5,5.906,1.109,11.34,102.7539,6.329,7.585,33.52,0,109.9,13.43,7.10,70.5
"2010-03-03 01:03:00",1728405,5.312,106.6,6.577,1.24,9.64,102.7545,6.33,7.609,33.6,0,109.9,13.43,7.10,68.6
"2010-03-03 01:03:30",1728406,5.992,109.8,5.637,1.106,10.4,102.7579,6.339,7.52,33.5,0,109.9,13.43,7.11,71.8
"2010-03-03 01:04:00",1728407,4.04,98.5,0.983,0.073,6.689,102.7606,6.346,7.379,33.45,0,109.9,13.46,7.12,60.5
"2010-03-03 01:04:30",1728408,5.178,103.9,6.181,1.227,8.3,102.7626,6.351,7.374,33.4,0,109.9,13.43,7.13,65.9
"2010-03-03 01:05:00",1728409,5.907,108,6.543,1.241,10.07,102.7632,6.353,7.629,33.81,0,109.9,13.43,7.13,70.0
"2010-03-03 01:05:30",1728410,5.783,107,7.911,1.334,10.13,102.7613,6.348,7.576,33.92,0,109.9,13.43,7.12,69.0
"2010-03-03 01:06:00",1728411,6.132,112.7,5.863,1.066,10.76,102.7532,6.327,7.577,33.94,0,109.9,13.44,7.10,74.7
"2010-03-03 01:06:30",1728412,5.141,108.5,7.471,1.077,9.64,102.746,6.308,7.509,33.75,0,109.9,13.43,7.08,70.5
"2010-03-03 01:07:00",1728413,4.126,101.8,1.234,0.08,6.68,102.7394,6.292,7.335,33.68,0,109.9,13.47,7.07,63.8
"2010-03-03 01:07:30",1728414,5.171,107.6,6.307,1.316,8.22,102.74,6.293,7.338,33.69,0,109.9,13.43,7.07,69.6
"2010-03-03 01:08:00",1728415,5.315,108.8,6.599,1.255,9.15,102.7418,6.298,7.486,33.87,0,109.9,13.44,7.07,70.8
"2010-03-03 01:08:30",1728416,5.836,112.2,5.852,1.093,10.7,102.7447,6.305,7.482,33.87,0,109.9,13.44,7.08,74.2
"2010-03-03 01:09:00",1728417,5.405,110.7,6.162,1.275,10.15,102.7464,6.31,7.498,33.91,0,109.9,13.44,7.08,72.7
"2010-03-03 01:09:30",1728418,5.788,113.5,6.168,1.084,10.61,102.7467,6.31,7.514,34.01,0,109.9,13.44,7.08,75.5
"2010-03-03 01:10:00",1728419,4.417,106.2,6.249,1.149,8.24,102.7461,6.309,7.426,33.91,0,109.9,13.44,7.08,68.2
"2010-03-03 01:10:30",1728420,4.301,105.6,5.477,1.188,7.385,102.7433,6.302,7.291,33.65,0,109.9,13.44,7.08,67.6
"2010-03-03 01:11:00",1728421,3.759,104.2,4.303,0.449,7.265,102.7393,6.292,7.391,33.68,0,109.9,13.44,7.07,66.2
"2010-03-03 01:11:30",1728422,5.284,113.2,5.915,1.206,10.64,102.7317,6.272,7.559,33.74,0,109.9,13.44,7.05,75.2
"2010-03-03 01:12:00",1728423,5.444,112.5,6.079,1.132,10.56,102.7187,6.239,7.361,33.45,0,109.9,13.44,7.01,74.5
"2010-03-03 01:12:30",1728424,5.195,114.3,6.167,1.137,10.62,102.7139,6.227,7.477,33.49,0,109.9,13.44,7.00,76.3
"2010-03-03 01:13:00",1728425,4.727,112.4,6.687,1.211,9.42,102.7128,6.224,7.445,33.4,0,109.9,13.44,7.00,74.4
"2010-03-03 01:13:30",1728426,3.355,105.5,1.393,0.131,6.525,102.7128,6.224,7.254,33.3,0,109.9,13.48,7.00,67.5
"2010-03-03 01:14:00",1728427,3.82,106.8,5.358,0.885,7.573,102.7128,6.224,7.399,33.57,0,109.9,13.44,7.00,68.8
"2010-03-03 01:14:30",1728428,4.838,112.2,6.529,1.287,9.13,102.7128,6.224,7.348,33.57,0,109.9,13.44,7.00,74.2
"2010-03-03 01:15:00",1728429,5.041,114.9,6.375,1.198,10.58,102.7128,6.224,7.447,33.6,0,109.9,13.44,7.00,76.9
"2010-03-03 01:15:30",1728430,4.298,112.6,6.066,1.232,9.17,102.7128,6.224,7.478,33.61,0,109.9,13.44,7.00,74.6
"2010-03-03 01:16:00",1728431,5.086,117.2,5.606,1.141,10.58,102.7128,6.224,7.474,33.56,0,109.9,13.44,7.00,79.2
"2010-03-03 01:16:30",1728432,4.39,113.5,6.473,1.226,8.91,102.7128,6.224,7.33,33.42,0,109.9,13.44,7.00,75.5
"2010-03-03 01:17:00",1728433,3.459,109.6,2.379,0.452,6.748,102.7128,6.224,7.244,33.22,0,109.9,13.45,7.00,71.6
"2010-03-03 01:17:30",1728434,4.249,114.4,6.327,1.253,8.32,102.7125,6.223,7.237,33.17,0,109.9,13.44,7.00,76.4
"2010-03-03 01:18:00",1728435,4.615,117.8,6.385,1.278,9.7,102.71,6.216,7.446,33.38,0,109.9,13.44,6.99,79.8
"2010-03-03 01:18:30",1728436,3.649,113.8,4.976,0.904,8.23,102.7037,6.201,7.374,33.28,0,109.9,13.44,6.97,75.8
"2010-03-03 01:19:00",1728437,4.83,119.5,5.916,1.23,10.41,102.6944,6.177,7.471,33.41,0,109.9,13.44,6.95,81.5
"2010-03-03 01:19:30",1728438,5.024,118.5,5.819,1.156,10.12,102.6854,6.154,7.369,33.37,0,109.9,13.44,6.93,80.5
"2010-03-03 01:20:00",1728439,3.476,109,2.635,0.465,7.103,102.6808,6.142,7.326,33.45,0,109.9,13.48,6.92,71.0
"2010-03-03 01:20:30",1728440,4.272,110,5.58,1.171,7.534,102.6792,6.138,7.197,33.64,0,109.9,13.44,6.91,72.0
"2010-03-03 01:21:00",1728441,4.3,109.7,5.989,1.126,8.25,102.6789,6.137,7.374,34.11,0,109.9,13.45,6.91,71.7
"2010-03-03 01:21:30",1728442,4.939,113.5,6.598,1.246,9.76,102.6789,6.137,7.471,34.34,0,109.9,13.45,6.91,75.5
"2010-03-03 01:22:00",1728443,5.411,116.8,5.912,1.232,10.43,102.6789,6.137,7.431,34.24,0,109.9,13.45,6.91,78.8
"2010-03-03 01:22:30",1728444,5.681,116.9,6.832,1.102,10.63,102.6789,6.137,7.384,34.19,0,109.9,13.45,6.91,78.9
"2010-03-03 01:23:00",1728445,5.209,117.1,6.315,1.24,9.82,102.6789,6.137,7.405,34.31,0,109.9,13.45,6.91,79.1
"2010-03-03 01:23:30",1728446,3.879,111.8,3.51,0.63,6.932,102.6789,6.137,7.177,34.01,0,109.9,13.45,6.91,73.8
"2010-03-03 01:24:00",1728447,4.338,112.6,4.508,1.068,7.347,102.6789,6.137,7.216,33.99,0,109.9,13.45,6.91,74.6
"2010-03-03 01:24:30",1728448,5.401,119.2,6.346,1.276,10.07,102.6789,6.137,7.416,34.25,0,109.9,13.46,6.91,81.2
"2010-03-03 01:25:00",1728449,5.664,120.7,6.431,1.18,10.94,102.6789,6.137,7.341,34.19,0,109.9,13.46,6.91,82.7
"2010-03-03 01:25:30",1728450,5.326,119.3,6.299,1.255,9.95,102.6783,6.136,7.346,34.27,0,110,13.46,6.91,81.3
"2010-03-03 01:26:00",1728451,5.07,116.7,6.337,1.215,9.7,102.6763,6.131,7.426,34.33,0,109.9,13.46,6.90,78.7
"2010-03-03 01:26:30",1728452,4.641,115.1,6.081,1.258,8.3,102.6704,6.115,7.193,34.11,0,109.9,13.46,6.89,77.1
"2010-03-03 01:27:00",1728453,4.254,115.5,6.319,1.08,8.06,102.667,6.107,7.312,34.17,0,109.9,13.46,6.88,77.5
"2010-03-03 01:27:30",1728454,4.248,116.3,4.696,1.109,7.666,102.6659,6.104,7.217,33.97,0,109.9,13.46,6.88,78.3
"2010-03-03 01:28:00",1728455,4.682,122.5,6.23,1.244,9.31,102.6622,6.095,7.368,33.91,0,109.9,13.46,6.87,84.5
"2010-03-03 01:28:30",1728456,5.004,128,6.307,1.239,10.45,102.6616,6.093,7.332,33.59,0,109.9,13.46,6.87,90.0
"2010-03-03 01:29:00",1728457,4.82,128,6.292,1.201,10.13,102.6611,6.092,7.367,33.43,0,109.9,13.46,6.87,90.0
"2010-03-03 01:29:30",1728458,3.553,123.6,5.101,0.858,7.928,102.6546,6.075,7.282,33.18,0,109.9,13.46,6.85,85.6
"2010-03-03 01:30:00",1728459,3.668,125.1,5.667,1.004,7.6,102.6495,6.062,7.145,32.87,0,109.9,13.46,6.84,87.1
"2010-03-03 01:30:30",1728460,3.571,126.9,4.765,1.059,7.698,102.647,6.056,7.19,32.74,0,109.9,13.46,6.83,88.9
"2010-03-03 01:31:00",1728461,4.522,131.6,6.395,1.305,10.32,102.6461,6.053,7.314,32.76,0,109.9,13.46,6.83,93.6
"2010-03-03 01:31:30",1728462,4.315,128.9,6.453,1.282,9.26,102.6482,6.059,7.185,32.58,0,109.9,13.46,6.83,90.9
"2010-03-03 01:32:00",1728463,4.742,131.7,6.07,1.206,10.52,102.6525,6.07,7.38,32.77,0,109.9,13.46,6.84,93.7
"2010-03-03 01:32:30",1728464,4.744,128.3,6.798,1.206,10.22,102.6542,6.074,7.33,32.79,0,109.9,13.45,6.85,90.3
"2010-03-03 01:33:00",1728465,3.178,117.9,0.928,0.032,6.901,102.6542,6.074,7.205,32.73,0,109.9,13.48,6.85,79.9
"2010-03-03 01:33:30",1728466,3.22,114.7,0.681,0.048,6.676,102.6569,6.081,7.118,32.86,0,109.9,13.48,6.85,76.7
"2010-03-03 01:34:00",1728467,4.467,120.6,6.208,1.29,9.15,102.6586,6.085,7.258,33.15,0,109.9,13.45,6.86,82.6
"2010-03-03 01:34:30",1728468,4.04,118.5,6.186,1.144,8.7,102.6583,6.085,7.345,33.26,0,109.9,13.45,6.86,80.5
"2010-03-03 01:35:00",1728469,5.131,123.9,5.716,1.11,10.72,102.6618,6.093,7.328,33.28,0,109.9,13.45,6.87,85.9
"2010-03-03 01:35:30",1728470,5.142,124.9,5.489,1.046,10.91,102.6658,6.104,7.37,33.26,0,109.9,13.46,6.88,86.9
"2010-03-03 01:36:00",1728471,4.64,125.3,5.935,1.192,9.92,102.6658,6.104,7.26,33.06,0,109.9,13.46,6.88,87.3
"2010-03-03 01:36:30",1728472,2.987,119.4,0.704,0.018,6.818,102.6664,6.105,7.109,32.66,0,109.9,13.49,6.88,81.4
"2010-03-03 01:37:00",1728473,3.978,124.9,6.434,1.241,9,102.6676,6.108,7.26,32.74,0,109.9,13.46,6.88,86.9
"2010-03-03 01:37:30",1728474,3.49,122.4,5.447,1.053,7.898,102.669,6.112,7.195,32.65,0,109.9,13.46,6.89,84.4
"2010-03-03 01:38:00",1728475,3.41,123.3,5.554,0.985,8.18,102.6696,6.113,7.25,32.71,0,109.9,13.46,6.89,85.3
"2010-03-03 01:38:30",1728476,4.484,129.4,6.47,1.28,10.19,102.6714,6.118,7.305,32.78,0,109.9,13.46,6.89,91.4
"2010-03-03 01:39:00",1728477,4.683,132.7,6.004,1.199,10.11,102.6714,6.118,7.299,32.67,0,109.9,13.46,6.89,94.7
"2010-03-03 01:39:30",1728478,3.943,125.8,6.672,1.226,9,102.6725,6.121,7.316,32.66,0,109.9,13.46,6.89,87.8
"2010-03-03 01:40:00",1728479,3.791,122.1,5.501,1.118,7.686,102.6722,6.12,7.098,32.58,0,109.9,13.46,6.89,84.1
"2010-03-03 01:40:30",1728480,3.323,120.2,3.608,0.668,7.273,102.6731,6.122,7.216,32.79,0,109.9,13.47,6.90,82.2
"2010-03-03 01:41:00",1728481,5.018,129.1,5.808,1.197,10.57,102.6725,6.121,7.285,32.85,0,109.9,13.47,6.89,91.1
"2010-03-03 01:41:30",1728482,4.556,128.6,6.581,1.298,9.46,102.6714,6.118,7.228,32.69,0,109.9,13.47,6.89,90.6
"2010-03-03 01:42:00",1728483,4.876,130.1,5.736,1.196,10.4,102.6709,6.117,7.329,32.76,0,109.9,13.47,6.89,92.1
"2010-03-03 01:42:30",1728484,5.238,132.1,5.807,1.135,10.63,102.6724,6.12,7.282,32.67,0,109.9,13.47,6.89,94.1
"2010-03-03 01:43:00",1728485,3.767,124.1,3.773,0.977,7.243,102.6699,6.114,7.095,32.47,0,109.9,13.47,6.89,86.1
"2010-03-03 01:43:30",1728486,4.49,129.6,6.514,1.283,8.99,102.6681,6.11,7.196,32.57,0,109.9,13.47,6.88,91.6
"2010-03-03 01:44:00",1728487,3.698,126.5,5.537,0.965,8.14,102.665,6.102,7.24,32.59,0,109.9,13.47,6.88,88.5
"2010-03-03 01:44:30",1728488,4.33,130.8,6.554,1.27,9.19,102.6665,6.105,7.207,32.45,0,109.9,13.47,6.88,92.8
"2010-03-03 01:45:00",1728489,4.294,130.7,6.827,1.237,9.14,102.6662,6.105,7.263,32.37,0,109.9,13.47,6.88,92.7
"2010-03-03 01:45:30",1728490,4.988,135.1,5.614,1.186,10.67,102.6625,6.095,7.278,32.32,0,109.9,13.47,6.87,97.1
"2010-03-03 01:46:00",1728491,4.159,129.4,6.175,1.162,8.65,102.6602,6.089,7.297,32.37,0,109.9,13.47,6.86,91.4
"2010-03-03 01:46:30",1728492,3.335,126.1,2.067,0.038,6.92,102.6625,6.095,7.198,32.25,0,109.9,13.5,6.87,88.1
"2010-03-03 01:47:00",1728493,4.513,135.8,6.024,1.275,8.79,102.6594,6.087,7.145,31.95,0,109.9,13.47,6.86,97.8
"2010-03-03 01:47:30",1728494,4.498,136.7,6.481,1.298,9.39,102.6558,6.078,7.277,31.8,0,109.9,13.47,6.85,98.7
"2010-03-03 01:48:00",1728495,4.393,135.3,6.433,1.245,9.44,102.6512,6.066,7.204,31.52,0,109.9,13.47,6.84,97.3
"2010-03-03 01:48:30",1728496,4.881,137.9,6.531,1.238,9.8,102.6515,6.067,7.278,31.56,0,109.9,13.46,6.84,99.9
"2010-03-03 01:49:00",1728497,5.155,139.8,5.971,1.114,10.7,102.6493,6.061,7.325,31.51,0,109.9,13.46,6.83,101.8
"2010-03-03 01:49:30",1728498,4.114,133.7,5.549,1.113,8.26,102.647,6.056,7.129,31.34,0,109.9,13.46,6.83,95.7
"2010-03-03 01:50:00",1728499,4.434,135.9,6.705,1.258,8.97,102.6461,6.053,7.213,31.4,0,109.9,13.46,6.83,97.9